This demonstration page uses our WeatherBlox Daily Observations layout. Learn more.

Left ArrowRight Arrow

Hourly Observations for June 3, 2020

Temp ( °F °C ) Dew Point ( °F °C ) Humidity (%) Winds ( mph kmh ) Pressure ( in mb ) Visibility ( mi km ) Precip ( " mm )
12:53 am 00:53 Clear 63 17.2 40 4.4 43 43 SW 16 26 29.80 1009 10 16 N/A
1:53 am 01:53 Clear 63 17.2 37 2.8 38 38 SW 16 26 29.79 1009 10 16 N/A
2:53 am 02:53 Clear 60 15.6 37 2.8 42 42 SW 18 30 29.79 1009 10 16 N/A
3:53 am 03:53 Clear 56 13.3 36 2.2 47 47 WSW 8 13 29.80 1009 10 16 N/A
4:53 am 04:53 Mostly Clear 63 17.2 32 undefined 31 31 WNW 23 37 29.82 1010 10 16 N/A
5:53 am 05:53 Sunny 63 17.2 33 0.6 33 33 WNW 22 35 29.85 1011 10 16 N/A
6:53 am 06:53 Sunny 61 16.1 35 1.7 38 38 WNW 12 19 29.88 1012 10 16 N/A
7:53 am 07:53 Sunny 65 18.3 34 1.1 32 32 WNW 21 33 29.90 1013 10 16 N/A
8:53 am 08:53 Sunny 66 18.9 33 0.6 29 29 NW 16 26 29.91 1013 10 16 N/A
9:53 am 09:53 Sunny 68 20 35 1.7 30 30 NW 15 24 29.91 1013 10 16 N/A
10:53 am 10:53 Sunny 69 20.6 36 2.2 30 30 NW 12 19 29.90 1013 10 16 N/A
11:53 am 11:53 Sunny 72 22.2 35 1.7 26 26 W 18 30 29.89 1012 10 16 N/A
12:53 pm 12:53 Sunny 72 22.2 34 1.1 25 25 WNW 12 19 29.87 1012 10 16 N/A
1:53 pm 13:53 Sunny 74 23.3 30 -1.1 20 20 W 21 33 29.85 1011 10 16 N/A
2:53 pm 14:53 Mostly Sunny 74 23.3 31 -0.6 20 20 W 18 30 29.84 1011 10 16 N/A
3:53 pm 15:53 Mostly Sunny 74 23.3 31 -0.6 20 20 W 15 24 29.83 1010 10 16 N/A
4:53 pm 16:53 Mostly Cloudy 72 22.2 34 1.1 25 25 NNW 14 22 29.80 1009 10 16 N/A
5:00 pm 17:00 Mostly Cloudy 76 24.4 36 2.2 23 23 NNW 17 28 29.70 1006 10 16 N/A
5:53 pm 17:53 Sunny 75 23.9 35 1.7 23 23 N 10 17 29.79 1009 10 16 N/A
6:53 pm 18:53 Partly Cloudy 75 23.9 34 1.1 22 22 NNW 14 22 29.78 1009 10 16 N/A
7:53 pm 19:53 Sunny 72 22.2 27 -2.8 19 19 WNW 14 22 29.79 1009 10 16 N/A
8:53 pm 20:53 Sunny 65 18.3 28 -2.2 25 25 WNW 9 15 29.81 1009 10 16 N/A
9:53 pm 21:53 Clear 57 13.9 28 -2.2 33 33 W 3 6 29.83 1010 10 16 N/A
10:53 pm 22:53 Clear 53 11.7 31 -0.6 43 43 WNW 3 6 29.83 1010 10 16 N/A
11:53 pm 23:53 Clear 56 13.3 33 0.6 42 42 SSE 8 13 29.82 1010 10 16 N/A

Powered by AerisWeather